Weather History for Kansas City, MO

Change the Weather History Date:

Thursday, April 17, 2014

  Actual Average Record
Temperature  
Mean Temperature 44 °F -  
Max Temperature 51 °F 64 °F 82 °F (2002)
Min Temperature 39 °F 45 °F 33 °F (1997)
Degree Days  
Heating Degree Days 20    
Moisture  
Dew Point 32 °F    
Average Humidity 62    
Maximum Humidity 71    
Minimum Humidity 50    
Precipitation  
Precipitation 0.00 in - - ()
Sea Level Pressure  
Sea Level Pressure 30.25 in    
Wind  
Wind Speed 7 mph (NNW)    
Max Wind Speed 12 mph    
Max Gust Speed 17 mph    
Visibility 10 miles    
Events      
Averages and records for this station are not official NWS values.
T = Trace of Precipitation, MM = Missing Value Source: NWS Daily Summary

Daily Weather History Graph

Daily Weather History Graph

Search for Another Location

Airport:

Trip Planner

Search our weather history database for the weather conditions in past years. The results will help you decide how hot, cold, wet, or windy it might be!

Date:

Astronomy

Apr. 17, 2014 Rise Set
Actual Time 6:38 AM CDT 7:57 PM CDT
Civil Twilight 6:10 AM CDT 8:25 PM CDT
Nautical Twilight 5:37 AM CDT 8:58 PM CDT
Astronomical Twilight 5:02 AM CDT 9:34 PM CDT
Moon 10:43 PM CDT (4/17) 8:11 AM CDT (4/17)
Length of Visible Light 14h 14m
Length of Day
13h 19m
Waning Gibbous, 93% of the Moon is Illuminated
Apr 17
Waning Gibbous
Apr 22
Last Quarter
Apr 29
New
May 6
First Quarter
May 14
Full

Hourly Weather History & Observations

Time (CDT) Temp. Windchill Dew Point Humidity Pressure Visibility Wind Dir Wind Speed Gust Speed Precip Events Conditions
12:54 AM 45.0 °F 39.7 °F 33.1 °F 63% 30.09 in 10.0 mi NW 10.4 mph - N/A   Clear
1:54 AM 43.0 °F 37.7 °F 32.0 °F 65% 30.12 in 10.0 mi NNW 9.2 mph 17.3 mph N/A   Clear
2:54 AM 42.1 °F 38.4 °F 30.9 °F 65% 30.13 in 10.0 mi NW 5.8 mph - N/A   Clear
3:54 AM 41.0 °F 37.1 °F 30.9 °F 67% 30.15 in 10.0 mi NW 5.8 mph - N/A   Clear
4:54 AM 41.0 °F 36.4 °F 30.9 °F 67% 30.18 in 10.0 mi NW 6.9 mph - N/A   Partly Cloudy
5:09 AM 41.0 °F 36.4 °F 30.9 °F 67% 30.18 in 10.0 mi NW 6.9 mph - N/A   Mostly Cloudy
5:54 AM 41.0 °F 35.2 °F 30.9 °F 67% 30.19 in 10.0 mi NNW 9.2 mph - N/A   Overcast
6:54 AM 41.0 °F 36.4 °F 30.9 °F 67% 30.22 in 10.0 mi North 6.9 mph - N/A   Overcast
7:54 AM 39.9 °F 32.9 °F 30.0 °F 68% 30.26 in 7.0 mi NNW 11.5 mph - N/A   Mostly Cloudy
8:54 AM 39.9 °F 33.9 °F 30.0 °F 68% 30.29 in 10.0 mi North 9.2 mph - N/A   Overcast
9:54 AM 41.0 °F 34.7 °F 30.0 °F 65% 30.30 in 10.0 mi NNE 10.4 mph - N/A   Overcast
10:54 AM 42.8 °F 36.6 °F 30.2 °F 61% 30.30 in 10.0 mi North 11.5 mph - N/A   Overcast
11:54 AM 43.0 °F 39.5 °F 30.9 °F 62% 30.34 in 10.0 mi North 5.8 mph - N/A   Mostly Cloudy
12:54 PM 44.1 °F 40.8 °F 30.9 °F 60% 30.31 in 10.0 mi North 5.8 mph - N/A   Mostly Cloudy
1:54 PM 44.1 °F 41.5 °F 30.9 °F 60% 30.32 in 10.0 mi Variable 4.6 mph - N/A   Mostly Cloudy
2:54 PM 46.9 °F - 32.0 °F 56% 30.30 in 10.0 mi Calm Calm - N/A   Clear
3:54 PM 46.9 °F - 32.0 °F 56% 30.29 in 10.0 mi Calm Calm - N/A   Partly Cloudy
4:54 PM 48.9 °F - 33.1 °F 54% 30.29 in 10.0 mi West 3.5 mph - N/A   Clear
5:54 PM 50.0 °F - 33.1 °F 52% 30.29 in 10.0 mi Calm Calm - N/A   Partly Cloudy
6:54 PM 50.0 °F - 32.0 °F 50% 30.28 in 10.0 mi Calm Calm - N/A   Clear
7:54 PM 48.0 °F - 32.0 °F 54% 30.28 in 10.0 mi East 3.5 mph - N/A   Clear
8:54 PM 46.9 °F - 32.0 °F 56% 30.29 in 10.0 mi East 3.5 mph - N/A   Clear
9:54 PM 46.0 °F 43.9 °F 34.0 °F 63% 30.30 in 10.0 mi SSW 4.6 mph - N/A   Clear
10:54 PM 46.0 °F - 34.0 °F 63% 30.29 in 10.0 mi Calm Calm - N/A   Clear
11:54 PM 44.1 °F - 35.1 °F 71% 30.29 in 10.0 mi Calm Calm - N/A   Clear